,,,PA_Meas_PMT16A,,PR_Meas_QMR101_102,,RH_Meas_QMH101,,SR_Meas_QMS101,,TA_Meas_QMH101,,GenWind,,GenWind,
date,time,status,PA,status,PR,status,RH,status,SR,status,TA,status,DirAvg,status,SpdAvg,
2008-04-01, 00:00:05,VALID,1004.47,VALID,0,VALID,91.722,VALID,0,VALID,23.5496,VALID,14,VALID,1.21133,
2008-04-01, 00:01:05,VALID,1004.52,VALID,0,VALID,91.0125,VALID,0,VALID,23.5302,VALID,4,VALID,2.06523,
2008-04-01, 00:02:05,VALID,1004.52,VALID,0,VALID,91.6305,VALID,0,VALID,23.5496,VALID,12,VALID,1.49688,
2008-04-01, 00:03:05,VALID,1004.52,VALID,0,VALID,91.2643,VALID,0,VALID,23.5496,VALID,18,VALID,2.11172,
2008-04-01, 00:04:05,VALID,1004.53,VALID,0,VALID,91.3101,VALID,0,VALID,23.608,VALID,12,VALID,1.76055,
2008-04-01, 00:05:05,VALID,1004.52,VALID,0,VALID,91.127,VALID,0,VALID,23.608,VALID,45,VALID,1.66328,
2008-04-01, 00:06:05,VALID,1004.57,VALID,0,VALID,91.333,VALID,0,VALID,23.6664,VALID,355,VALID,1.60078,
2008-04-01, 00:07:05,VALID,1004.55,VALID,0,VALID,91.2185,VALID,0,VALID,23.6859,VALID,22,VALID,2.26523,
2008-04-01, 00:08:05,VALID,1004.58,VALID,0,VALID,91.2643,VALID,0,VALID,23.7071,VALID,7,VALID,1.25781,
2008-04-01, 00:09:05,VALID,1004.58,VALID,0,VALID,91.3024,VALID,0,VALID,23.7071,VALID,25,VALID,1.79219,
2008-04-01, 00:10:05,VALID,1004.58,VALID,0,VALID,91.2414,VALID,0,VALID,23.7071,VALID,24,VALID,1.63008,
2008-04-01, 00:11:05,VALID,1004.61,VALID,0,VALID,91.8517,VALID,0,VALID,23.7071,VALID,6,VALID,1.34063,
2008-04-01, 00:12:05,VALID,1004.58,VALID,0,VALID,92.3247,VALID,0,VALID,23.7089,VALID,4,VALID,1.05977,
2008-04-01, 00:13:05,VALID,1004.54,VALID,0,VALID,90.4099,VALID,0,VALID,23.6877,VALID,35,VALID,2.47773,
2008-04-01, 00:14:05,VALID,1004.58,VALID,0,VALID,90.6769,VALID,0,VALID,23.7443,VALID,358,VALID,1.65156,
2008-04-01, 00:15:05,VALID,1004.57,VALID,0,VALID,91.5389,VALID,0,VALID,23.785,VALID,13,VALID,1.10352,
2008-04-01, 00:16:05,VALID,1004.55,VALID,0,VALID,89.9064,VALID,0,VALID,23.7443,VALID,34,VALID,3.34453,
2008-04-01, 00:17:05,VALID,1004.61,VALID,0,VALID,89.4105,VALID,0,VALID,23.8239,VALID,17,VALID,2.67734,
2008-04-01, 00:18:05,VALID,1004.59,VALID,0,VALID,90.181,VALID,0,VALID,23.8611,VALID,360,VALID,2.73086,
2008-04-01, 00:19:05,VALID,1004.56,VALID,0,VALID,90.181,VALID,0,VALID,23.8805,VALID,3,VALID,2.20156,
2008-04-01, 00:20:05,VALID,1004.53,VALID,0,VALID,90.3717,VALID,0,VALID,23.9408,VALID,22,VALID,1.72266,
2008-04-01, 00:21:05,VALID,1004.46,VALID,0,VALID,91.2185,VALID,0,VALID,23.9408,VALID,357,VALID,1.73359,
2008-04-01, 00:22:05,VALID,1004.42,VALID,0,VALID,91.2414,VALID,0,VALID,23.8805,VALID,7,VALID,1.58828,
2008-04-01, 00:23:05,VALID,1004.37,VALID,0,VALID,90.9363,VALID,0,VALID,23.8805,VALID,9,VALID,1.62109,
2008-04-01, 00:24:05,VALID,1004.34,VALID,0,VALID,89.4639,VALID,0,VALID,23.9018,VALID,14,VALID,2.22305,
2008-04-01, 00:25:05,VALID,1004.24,VALID,0,VALID,90.2115,VALID,0,VALID,23.9602,VALID,20,VALID,1.80977,
2008-04-01, 00:26:05,VALID,1004.2,VALID,0,VALID,89.8301,VALID,0,VALID,23.9213,VALID,16,VALID,1.91602,
2008-04-01, 00:27:05,VALID,1004.17,VALID,0,VALID,89.4639,VALID,0,VALID,23.9018,VALID,346,VALID,2.10938,
2008-04-01, 00:28:05,VALID,1004.17,VALID,0,VALID,89.2274,VALID,0,VALID,23.9,VALID,359,VALID,2.46914,
2008-04-01, 00:29:05,VALID,1004.15,VALID,0,VALID,88.3195,VALID,0,VALID,23.8805,VALID,16,VALID,2.11719,
2008-04-01, 00:30:05,VALID,1004.13,VALID,0,VALID,87.7398,VALID,0,VALID,23.9213,VALID,24,VALID,1.93203,
2008-04-01, 00:31:05,VALID,1004.1,VALID,0,VALID,88.2356,VALID,0,VALID,23.9,VALID,19,VALID,2.39609,
2008-04-01, 00:32:05,VALID,1004.11,VALID,0,VALID,88.8841,VALID,0,VALID,23.8805,VALID,354,VALID,1.01602,
2008-04-01, 00:33:05,VALID,1004.12,VALID,0,VALID,89.4639,VALID,0,VALID,23.8221,VALID,5,VALID,1.18906,
2008-04-01, 00:34:05,VALID,1004.09,VALID,0,VALID,89.3647,VALID,0,VALID,23.8045,VALID,353,VALID,1.81992,
2008-04-01, 00:35:05,VALID,1004.04,VALID,0,VALID,88.4569,VALID,0,VALID,23.7637,VALID,10,VALID,1.73945,
2008-04-01, 00:36:05,VALID,1004.03,VALID,0,VALID,88.3882,VALID,0,VALID,23.7637,VALID,359,VALID,1.61875,
2008-04-01, 00:37:05,VALID,1003.98,VALID,0,VALID,87.1447,VALID,0,VALID,23.7868,VALID,3,VALID,2.19961,
2008-04-01, 00:38:05,VALID,1003.94,VALID,0,VALID,86.5573,VALID,0,VALID,23.7637,VALID,17,VALID,2.54258,
2008-04-01, 00:39:05,VALID,1003.97,VALID,0,VALID,86.7022,VALID,0,VALID,23.8239,VALID,357,VALID,1.94219,
2008-04-01, 00:40:05,VALID,1003.93,VALID,0,VALID,87.1981,VALID,0,VALID,23.8434,VALID,11,VALID,2.0543,
2008-04-01, 00:41:05,VALID,1003.92,VALID,0,VALID,86.5344,VALID,0,VALID,23.8221,VALID,17,VALID,1.3668,
2008-04-01, 00:42:05,VALID,1003.9,VALID,0,VALID,86.0843,VALID,0,VALID,23.8027,VALID,354,VALID,2.25586,
2008-04-01, 00:43:05,VALID,1003.93,VALID,0,VALID,86.2369,VALID,0,VALID,23.8416,VALID,1,VALID,2.27109,
2008-04-01, 00:44:05,VALID,1003.91,VALID,0,VALID,85.802,VALID,0,VALID,23.8221,VALID,32,VALID,1.68828,
2008-04-01, 00:45:05,VALID,1003.89,VALID,0,VALID,86.2598,VALID,0,VALID,23.8027,VALID,351,VALID,1.85742,
2008-04-01, 00:46:05,VALID,1003.88,VALID,0,VALID,86.1529,VALID,0,VALID,23.8045,VALID,20,VALID,2.62891,
2008-04-01, 00:47:05,VALID,1003.84,VALID,0,VALID,87.2973,VALID,0,VALID,23.8027,VALID,14,VALID,1.19336,
2008-04-01, 00:48:05,VALID,1003.81,VALID,0,VALID,86.8853,VALID,0,VALID,23.7443,VALID,6,VALID,1.64766,
2008-04-01, 00:49:05,VALID,1003.8,VALID,0,VALID,86.5268,VALID,0,VALID,23.7443,VALID,13,VALID,2.07344,
2008-04-01, 00:50:05,VALID,1003.76,VALID,0,VALID,86.3818,VALID,0,VALID,23.7655,VALID,7,VALID,1.44648,
2008-04-01, 00:51:05,VALID,1003.7,VALID,0,VALID,86.0156,VALID,0,VALID,23.7443,VALID,11,VALID,1.77227,
2008-04-01, 00:52:05,VALID,1003.69,VALID,0,VALID,86.6336,VALID,0,VALID,23.7655,VALID,4,VALID,1.11016,
2008-04-01, 00:53:05,VALID,1003.69,VALID,0,VALID,85.6494,VALID,0,VALID,23.7637,VALID,16,VALID,1.97695,
2008-04-01, 00:54:05,VALID,1003.7,VALID,0,VALID,85.9088,VALID,0,VALID,23.7832,VALID,20,VALID,1.6668,
2008-04-01, 00:55:05,VALID,1003.68,VALID,0,VALID,86.3513,VALID,0,VALID,23.7832,VALID,358,VALID,1.19648,
2008-04-01, 00:56:05,VALID,1003.65,VALID,0,VALID,86.5496,VALID,0,VALID,23.7461,VALID,358,VALID,1.13867,
2008-04-01, 00:57:05,VALID,1003.67,VALID,0,VALID,86.3666,VALID,0,VALID,23.7637,VALID,348,VALID,1.37227,
2008-04-01, 00:58:05,VALID,1003.69,VALID,0,VALID,86.4962,VALID,0,VALID,23.785,VALID,22,VALID,1.60234,
2008-04-01, 00:59:05,VALID,1003.68,VALID,0,VALID,86.7938,VALID,0,VALID,23.7443,VALID,9,VALID,1.61016,
2008-04-01, 01:00:05,VALID,1003.66,VALID,0,VALID,85.8096,VALID,0,VALID,23.7053,VALID,6,VALID,2.2293,
2008-04-01, 01:01:05,VALID,1003.68,VALID,0,VALID,85.947,VALID,0,VALID,23.7443,VALID,19,VALID,2.08711,
2008-04-01, 01:02:05,VALID,1003.67,VALID,0,VALID,86.0004,VALID,0,VALID,23.7832,VALID,1,VALID,1.6875,
2008-04-01, 01:03:05,VALID,1003.66,VALID,0,VALID,85.9622,VALID,0,VALID,23.7637,VALID,9,VALID,1.76953,
2008-04-01, 01:04:05,VALID,1003.69,VALID,0,VALID,86.4352,VALID,0,VALID,23.7637,VALID,347,VALID,1.10703,
2008-04-01, 01:05:05,VALID,1003.64,VALID,0,VALID,86.6336,VALID,0,VALID,23.7053,VALID,11,VALID,1.43164,
2008-04-01, 01:06:05,VALID,1003.61,VALID,0,VALID,86.7022,VALID,0,VALID,23.6859,VALID,3,VALID,1.50625,
2008-04-01, 01:07:05,VALID,1003.63,VALID,0,VALID,86.7175,VALID,0,VALID,23.7053,VALID,13,VALID,2.20195,
2008-04-01, 01:08:05,VALID,1003.61,VALID,0,VALID,86.1301,VALID,0,VALID,23.7637,VALID,15,VALID,1.42188,
2008-04-01, 01:09:05,VALID,1003.59,VALID,0,VALID,85.7944,VALID,0,VALID,23.8045,VALID,354,VALID,2.0832,
2008-04-01, 01:10:05,VALID,1003.58,VALID,0,VALID,85.9012,VALID,0,VALID,23.8027,VALID,18,VALID,1.92656,
2008-04-01, 01:11:05,VALID,1003.58,VALID,0,VALID,85.7868,VALID,0,VALID,23.9,VALID,8,VALID,1.50781,
2008-04-01, 01:12:05,VALID,1003.58,VALID,0,VALID,86.1987,VALID,0,VALID,23.9,VALID,3,VALID,1.1168,
2008-04-01, 01:13:05,VALID,1003.59,VALID,0,VALID,86.1911,VALID,0,VALID,23.8593,VALID,354,VALID,1.6,
2008-04-01, 01:14:05,VALID,1003.58,VALID,0,VALID,86.0843,VALID,0,VALID,23.8611,VALID,3,VALID,1.38047,
2008-04-01, 01:15:05,VALID,1003.6,VALID,0,VALID,85.9622,VALID,0,VALID,23.9195,VALID,1,VALID,1.29492,
2008-04-01, 01:16:05,VALID,1003.58,VALID,0,VALID,85.2985,VALID,0,VALID,23.9779,VALID,8,VALID,1.7125,
2008-04-01, 01:17:05,VALID,1003.57,VALID,0,VALID,85.2375,VALID,0,VALID,23.9955,VALID,18,VALID,2.27891,
2008-04-01, 01:18:05,VALID,1003.56,VALID,0,VALID,85.3367,VALID,0.100563,VALID,24.0363,VALID,40,VALID,1.01445,
2008-04-01, 01:19:05,VALID,1003.54,VALID,0,VALID,84.9171,VALID,0,VALID,24.0557,VALID,346,VALID,1.25547,
2008-04-01, 01:20:05,VALID,1003.53,VALID,0,VALID,85.5655,VALID,0,VALID,24.015,VALID,20,VALID,1.45,
2008-04-01, 01:21:04,VALID,1003.53,VALID,0,VALID,85.1993,VALID,0,VALID,24.0168,VALID,6,VALID,0.737109,
2008-04-01, 01:22:04,VALID,1003.57,VALID,0,VALID,85.7486,VALID,0,VALID,23.9973,VALID,5,VALID,1.1207,
2008-04-01, 01:23:04,VALID,1003.55,VALID,0,VALID,85.3672,VALID,0.100563,VALID,23.9779,VALID,6,VALID,1.08633,
2008-04-01, 01:24:04,VALID,1003.55,VALID,0,VALID,85.9775,VALID,0.100563,VALID,23.9389,VALID,5,VALID,0.888281,
2008-04-01, 01:25:04,VALID,1003.56,VALID,0,VALID,84.4212,VALID,0,VALID,23.9584,VALID,351,VALID,1.28203,
2008-04-01, 01:26:04,VALID,1003.52,VALID,0,VALID,85.0162,VALID,0,VALID,23.9973,VALID,345,VALID,0.959766,
2008-04-01, 01:27:04,VALID,1003.53,VALID,0,VALID,85.123,VALID,0,VALID,24.0168,VALID,15,VALID,0.988281,
2008-04-01, 01:28:04,VALID,1003.52,VALID,0,VALID,85.207,VALID,0,VALID,23.9973,VALID,349,VALID,1.31523,
2008-04-01, 01:29:04,VALID,1003.5,VALID,0,VALID,85.268,VALID,0,VALID,23.9973,VALID,357,VALID,0.93125,
2008-04-01, 01:30:04,VALID,1003.47,VALID,0,VALID,85.6037,VALID,0,VALID,23.9992,VALID,358,VALID,1.43398,
2008-04-01, 01:31:04,VALID,1003.45,VALID,0,VALID,86.0614,VALID,0,VALID,23.9389,VALID,350,VALID,0.856641,
2008-04-01, 01:32:04,VALID,1003.38,VALID,0,VALID,84.795,VALID,0,VALID,23.9389,VALID,2,VALID,1.78789,
2008-04-01, 01:33:04,VALID,1003.43,VALID,0,VALID,85.6494,VALID,0,VALID,23.9584,VALID,2,VALID,0.991797,
2008-04-01, 01:34:04,VALID,1003.4,VALID,0,VALID,86.0461,VALID,0,VALID,23.9602,VALID,5,VALID,1.66133,
2008-04-01, 01:35:04,VALID,1003.39,VALID,0,VALID,86.3742,VALID,0,VALID,23.9389,VALID,19,VALID,1.43711,
2008-04-01, 01:36:04,VALID,1003.39,VALID,0,VALID,84.9323,VALID,0.100563,VALID,23.9973,VALID,16,VALID,2.33633,
2008-04-01, 01:37:04,VALID,1003.42,VALID,0,VALID,85.8402,VALID,0,VALID,23.9973,VALID,356,VALID,1.14414,
2008-04-01, 01:38:04,VALID,1003.42,VALID,0,VALID,85.1078,VALID,0,VALID,23.9973,VALID,355,VALID,2.00117,
2008-04-01, 01:39:04,VALID,1003.43,VALID,0,VALID,84.5661,VALID,0,VALID,24.0168,VALID,9,VALID,1.60391,
2008-04-01, 01:40:04,VALID,1003.44,VALID,0,VALID,84.261,VALID,0,VALID,24.0363,VALID,360,VALID,1.62812,
2008-04-01, 01:41:04,VALID,1003.45,VALID,0,VALID,83.4905,VALID,0.100563,VALID,24.0752,VALID,357,VALID,1.76797,
2008-04-01, 01:42:04,VALID,1003.45,VALID,0,VALID,84.6424,VALID,0,VALID,24.1336,VALID,357,VALID,1.89453,
2008-04-01, 01:43:04,VALID,1003.42,VALID,0,VALID,84.2381,VALID,0,VALID,24.116,VALID,348,VALID,1.81914,
2008-04-01, 01:44:04,VALID,1003.44,VALID,0,VALID,85.2756,VALID,0.100563,VALID,24.1142,VALID,8,VALID,1.69141,
2008-04-01, 01:45:04,VALID,1003.46,VALID,0,VALID,85.123,VALID,0,VALID,24.0752,VALID,352,VALID,1.23242,
2008-04-01, 01:46:04,VALID,1003.41,VALID,0,VALID,84.5433,VALID,0,VALID,24.077,VALID,4,VALID,2.64883,
2008-04-01, 01:47:04,VALID,1003.4,VALID,0,VALID,85.4663,VALID,0,VALID,24.0947,VALID,27,VALID,2.5918,
2008-04-01, 01:48:04,VALID,1003.41,VALID,0,VALID,85.3214,VALID,0,VALID,24.0752,VALID,16,VALID,2.4125,
2008-04-01, 01:49:04,VALID,1003.39,VALID,0,VALID,85.6418,VALID,0,VALID,24.0947,VALID,5,VALID,1.80938,
2008-04-01, 01:50:04,VALID,1003.38,VALID,0,VALID,85.5579,VALID,0,VALID,24.0752,VALID,5,VALID,2.36562,
2008-04-01, 01:51:04,VALID,1003.33,VALID,0,VALID,85.3138,VALID,0.100563,VALID,24.0557,VALID,18,VALID,1.55977,
2008-04-01, 01:52:04,VALID,1003.35,VALID,0,VALID,86.0767,VALID,0,VALID,24.0363,VALID,1,VALID,1.8,
2008-04-01, 01:53:04,VALID,1003.37,VALID,0,VALID,86.0156,VALID,0,VALID,24.0168,VALID,8,VALID,1.1832,
2008-04-01, 01:54:04,VALID,1003.35,VALID,0,VALID,86.0538,VALID,0,VALID,23.9973,VALID,351,VALID,2.3207,
2008-04-01, 01:55:04,VALID,1003.36,VALID,0,VALID,85.9775,VALID,0,VALID,23.9779,VALID,16,VALID,2.37383,
2008-04-01, 01:56:04,VALID,1003.36,VALID,0,VALID,85.3595,VALID,0,VALID,23.9973,VALID,354,VALID,2.0375,
2008-04-01, 01:57:04,VALID,1003.37,VALID,0,VALID,85.9851,VALID,0,VALID,23.9973,VALID,355,VALID,2.24375,
2008-04-01, 01:58:04,VALID,1003.35,VALID,0,VALID,85.6952,VALID,0,VALID,23.9992,VALID,10,VALID,2.26172,
2008-04-01, 01:59:04,VALID,1003.34,VALID,0,VALID,86.1377,VALID,0,VALID,23.9177,VALID,6,VALID,1.72031,
2008-04-01, 02:00:04,VALID,1003.31,VALID,0,VALID,86.2445,VALID,0,VALID,23.8805,VALID,4,VALID,2.11289,
2008-04-01, 02:01:04,VALID,1003.31,VALID,0,VALID,86.9692,VALID,0,VALID,23.8611,VALID,9,VALID,2.15078,
2008-04-01, 02:02:04,VALID,1003.35,VALID,0,VALID,87.1676,VALID,0,VALID,23.8221,VALID,20,VALID,1.93828,
2008-04-01, 02:03:04,VALID,1003.3,VALID,0,VALID,86.2598,VALID,0.100563,VALID,23.8045,VALID,357,VALID,2.43711,
2008-04-01, 02:04:04,VALID,1003.33,VALID,0,VALID,87.2362,VALID,0,VALID,23.7637,VALID,7,VALID,2.09961,
2008-04-01, 02:05:04,VALID,1003.31,VALID,0,VALID,87.4651,VALID,0,VALID,23.7461,VALID,21,VALID,2.0668,
2008-04-01, 02:06:04,VALID,1003.32,VALID,0,VALID,86.4734,VALID,0,VALID,23.7461,VALID,27,VALID,2.75391,
2008-04-01, 02:07:04,VALID,1003.37,VALID,0,VALID,87.3354,VALID,0,VALID,23.7443,VALID,6,VALID,1.46484,
2008-04-01, 02:08:04,VALID,1003.36,VALID,0,VALID,87.2973,VALID,0,VALID,23.6859,VALID,5,VALID,2.12031,
2008-04-01, 02:09:04,VALID,1003.38,VALID,0,VALID,87.343,VALID,0,VALID,23.6682,VALID,25,VALID,1.94648,
2008-04-01, 02:10:04,VALID,1003.38,VALID,0,VALID,87.6177,VALID,0,VALID,23.6487,VALID,15,VALID,2.29063,
2008-04-01, 02:11:04,VALID,1003.37,VALID,0,VALID,87.0379,VALID,0,VALID,23.608,VALID,16,VALID,2.75117,
2008-04-01, 02:12:04,VALID,1003.4,VALID,0,VALID,87.2896,VALID,0,VALID,23.608,VALID,6,VALID,2.51055,
2008-04-01, 02:13:04,VALID,1003.38,VALID,0,VALID,86.6107,VALID,0,VALID,23.6487,VALID,10,VALID,3.47578,
2008-04-01, 02:14:04,VALID,1003.36,VALID,0,VALID,85.7257,VALID,0,VALID,23.6877,VALID,32,VALID,2.63633,
2008-04-01, 02:15:04,VALID,1003.4,VALID,0,VALID,86.9464,VALID,0,VALID,23.6452,VALID,356,VALID,2.21289,
2008-04-01, 02:16:04,VALID,1003.4,VALID,0,VALID,87.6177,VALID,0,VALID,23.608,VALID,9,VALID,2.12578,
2008-04-01, 02:17:04,VALID,1003.36,VALID,0,VALID,88.6018,VALID,0,VALID,23.5903,VALID,6,VALID,1.31875,
2008-04-01, 02:18:04,VALID,1003.39,VALID,0.5,VALID,88.7697,VALID,0,VALID,23.493,VALID,16,VALID,2.10156,
2008-04-01, 02:19:04,VALID,1003.39,VALID,0,VALID,88.7468,VALID,0,VALID,23.4735,VALID,27,VALID,2.0082,
2008-04-01, 02:20:04,VALID,1003.4,VALID,0,VALID,89.113,VALID,0,VALID,23.493,VALID,11,VALID,1.43164,
2008-04-01, 02:21:04,VALID,1003.4,VALID,0,VALID,89.2503,VALID,0,VALID,23.4328,VALID,24,VALID,2.66523,
2008-04-01, 02:22:04,VALID,1003.39,VALID,0,VALID,89.4486,VALID,0,VALID,23.4134,VALID,37,VALID,2.13711,
2008-04-01, 02:23:04,VALID,1003.41,VALID,0,VALID,89.7156,VALID,0,VALID,23.4151,VALID,8,VALID,2.07031,
2008-04-01, 02:24:04,VALID,1003.36,VALID,0,VALID,89.1435,VALID,0,VALID,23.4346,VALID,359,VALID,1.67461,
2008-04-01, 02:25:04,VALID,1003.39,VALID,0,VALID,89.0519,VALID,0,VALID,23.4134,VALID,6,VALID,2.13906,
2008-04-01, 02:26:04,VALID,1003.38,VALID,0,VALID,87.0837,VALID,0,VALID,23.493,VALID,31,VALID,2.54766,
2008-04-01, 02:27:04,VALID,1003.39,VALID,0,VALID,87.1981,VALID,0,VALID,23.5691,VALID,359,VALID,2.95937,
2008-04-01, 02:28:04,VALID,1003.42,VALID,0,VALID,87.8389,VALID,0,VALID,23.5496,VALID,24,VALID,2.48828,
2008-04-01, 02:29:04,VALID,1003.39,VALID,0,VALID,88.1822,VALID,0,VALID,23.5302,VALID,354,VALID,2.43672,
2008-04-01, 02:30:04,VALID,1003.4,VALID,0,VALID,88.3043,VALID,0,VALID,23.5319,VALID,360,VALID,1.49727,
2008-04-01, 02:31:04,VALID,1003.43,VALID,0,VALID,87.5795,VALID,0,VALID,23.4912,VALID,27,VALID,2.73242,
2008-04-01, 02:32:04,VALID,1003.42,VALID,0,VALID,87.8923,VALID,0,VALID,23.5709,VALID,3,VALID,1.9582,
2008-04-01, 02:33:04,VALID,1003.41,VALID,0,VALID,88.4111,VALID,0,VALID,23.5496,VALID,25,VALID,2.74961,
2008-04-01, 02:34:04,VALID,1003.37,VALID,0,VALID,89.0519,VALID,0,VALID,23.5478,VALID,32,VALID,1.84492,
2008-04-01, 02:35:04,VALID,1003.4,VALID,0,VALID,89.1282,VALID,0,VALID,23.5107,VALID,7,VALID,1.825,
2008-04-01, 02:36:04,VALID,1003.39,VALID,0,VALID,89.5783,VALID,0,VALID,23.4718,VALID,1,VALID,1.61445,
2008-04-01, 02:37:04,VALID,1003.39,VALID,0,VALID,89.3266,VALID,0,VALID,23.4523,VALID,358,VALID,2.71484,
2008-04-01, 02:38:04,VALID,1003.41,VALID,0,VALID,89.5173,VALID,0,VALID,23.4328,VALID,20,VALID,2.31953,
2008-04-01, 02:39:04,VALID,1003.36,VALID,0,VALID,89.174,VALID,0,VALID,23.3921,VALID,1,VALID,2.39297,
2008-04-01, 02:40:04,VALID,1003.39,VALID,0,VALID,89.5707,VALID,0,VALID,23.4134,VALID,16,VALID,1.82539,
2008-04-01, 02:41:04,VALID,1003.37,VALID,0,VALID,89.4639,VALID,0,VALID,23.4134,VALID,16,VALID,2.19336,
2008-04-01, 02:42:04,VALID,1003.34,VALID,0,VALID,89.8987,VALID,0,VALID,23.3939,VALID,8,VALID,1.52266,
2008-04-01, 02:43:04,VALID,1003.36,VALID,0,VALID,89.769,VALID,0,VALID,23.4151,VALID,17,VALID,1.96563,
2008-04-01, 02:44:04,VALID,1003.36,VALID,0,VALID,89.975,VALID,0,VALID,23.4328,VALID,359,VALID,1.49023,
2008-04-01, 02:45:04,VALID,1003.42,VALID,0,VALID,90.0971,VALID,0,VALID,23.4328,VALID,12,VALID,2.28477,
2008-04-01, 02:46:04,VALID,1003.37,VALID,0,VALID,89.7843,VALID,0,VALID,23.4328,VALID,28,VALID,2.42344,
2008-04-01, 02:47:04,VALID,1003.41,VALID,0,VALID,89.8835,VALID,0,VALID,23.4523,VALID,23,VALID,1.75,
2008-04-01, 02:48:04,VALID,1003.41,VALID,0,VALID,90.509,VALID,0,VALID,23.4541,VALID,21,VALID,1.03633,
2008-04-01, 02:49:04,VALID,1003.41,VALID,0,VALID,90.6235,VALID,0,VALID,23.4134,VALID,6,VALID,1.62773,
2008-04-01, 02:50:04,VALID,1003.4,VALID,0,VALID,90.1886,VALID,0,VALID,23.4346,VALID,34,VALID,2.58125,
2008-04-01, 02:51:04,VALID,1003.41,VALID,0,VALID,90.1276,VALID,0,VALID,23.4328,VALID,19,VALID,2.76211,
2008-04-01, 02:52:04,VALID,1003.38,VALID,0,VALID,90.181,VALID,0,VALID,23.4328,VALID,360,VALID,3.00898,
2008-04-01, 02:53:04,VALID,1003.44,VALID,0,VALID,90.7303,VALID,0,VALID,23.4346,VALID,16,VALID,2.17695,
2008-04-01, 02:54:04,VALID,1003.4,VALID,0,VALID,90.982,VALID,0,VALID,23.4151,VALID,12,VALID,1.61797,
2008-04-01, 02:55:04,VALID,1003.41,VALID,0,VALID,90.8142,VALID,0,VALID,23.4134,VALID,17,VALID,3.00703,
2008-04-01, 02:56:04,VALID,1003.46,VALID,0,VALID,90.9744,VALID,0,VALID,23.4328,VALID,20,VALID,1.91875,
2008-04-01, 02:57:04,VALID,1003.46,VALID,0.5,VALID,90.8752,VALID,0,VALID,23.4541,VALID,357,VALID,2.08594,
2008-04-01, 02:58:04,VALID,1003.45,VALID,0,VALID,90.5396,VALID,0,VALID,23.4735,VALID,356,VALID,1.69336,
2008-04-01, 02:59:04,VALID,1003.51,VALID,0,VALID,90.7989,VALID,0,VALID,23.5107,VALID,15,VALID,1.76602,
2008-04-01, 03:00:04,VALID,1003.51,VALID,0,VALID,90.8676,VALID,0,VALID,23.5319,VALID,14,VALID,1.76406,
2008-04-01, 03:01:04,VALID,1003.55,VALID,0,VALID,90.6387,VALID,0,VALID,23.5302,VALID,8,VALID,2.4332,
2008-04-01, 03:02:04,VALID,1003.55,VALID,0,VALID,90.715,VALID,0,VALID,23.5903,VALID,3,VALID,2.27461,
2008-04-01, 03:03:04,VALID,1003.56,VALID,0,VALID,90.9057,VALID,0,VALID,23.5496,VALID,13,VALID,1.46055,
2008-04-01, 03:04:04,VALID,1003.51,VALID,0,VALID,91.1422,VALID,0,VALID,23.5496,VALID,15,VALID,3.40039,
2008-04-01, 03:05:04,VALID,1003.56,VALID,0,VALID,91.188,VALID,0,VALID,23.6275,VALID,357,VALID,1.61797,
2008-04-01, 03:06:04,VALID,1003.55,VALID,0,VALID,91.0354,VALID,0,VALID,23.6682,VALID,17,VALID,2.2375,
2008-04-01, 03:07:04,VALID,1003.59,VALID,0,VALID,90.9439,VALID,0,VALID,23.6275,VALID,20,VALID,1.8293,
2008-04-01, 03:08:04,VALID,1003.57,VALID,0,VALID,91.0507,VALID,0,VALID,23.5868,VALID,4,VALID,2.05234,
2008-04-01, 03:09:04,VALID,1003.62,VALID,0,VALID,91.2567,VALID,0,VALID,23.5691,VALID,8,VALID,2.1625,
2008-04-01, 03:10:04,VALID,1003.61,VALID,0,VALID,91.4779,VALID,0,VALID,23.5302,VALID,357,VALID,2.06562,
2008-04-01, 03:11:04,VALID,1003.57,VALID,0,VALID,91.2872,VALID,0,VALID,23.5302,VALID,351,VALID,2.45078,
2008-04-01, 03:12:04,VALID,1003.59,VALID,0,VALID,91.3864,VALID,0,VALID,23.5302,VALID,18,VALID,2.54531,
2008-04-01, 03:13:04,VALID,1003.61,VALID,0,VALID,91.4092,VALID,0,VALID,23.5107,VALID,3,VALID,2.30898,
2008-04-01, 03:14:04,VALID,1003.6,VALID,0,VALID,91.6991,VALID,0,VALID,23.47,VALID,14,VALID,1.66289,
2008-04-01, 03:15:04,VALID,1003.6,VALID,0,VALID,91.8136,VALID,0,VALID,23.4718,VALID,18,VALID,3.09375,
2008-04-01, 03:16:04,VALID,1003.58,VALID,0,VALID,91.928,VALID,0,VALID,23.4718,VALID,2,VALID,1.90195,
2008-04-01, 03:17:04,VALID,1003.59,VALID,0,VALID,92.0806,VALID,0,VALID,23.4523,VALID,10,VALID,2.05156,
2008-04-01, 03:18:04,VALID,1003.58,VALID,0,VALID,92.2561,VALID,0,VALID,23.4328,VALID,2,VALID,1.53125,
2008-04-01, 03:19:04,VALID,1003.57,VALID,0,VALID,92.4849,VALID,0,VALID,23.4134,VALID,356,VALID,1.3168,
2008-04-01, 03:20:04,VALID,1003.62,VALID,0,VALID,92.7596,VALID,0,VALID,23.4134,VALID,359,VALID,1.90508,
2008-04-01, 03:21:04,VALID,1003.57,VALID,0,VALID,92.3781,VALID,0,VALID,23.4116,VALID,5,VALID,2.16328,
2008-04-01, 03:22:04,VALID,1003.58,VALID,0,VALID,92.3095,VALID,0,VALID,23.4523,VALID,360,VALID,1.98438,
2008-04-01, 03:23:04,VALID,1003.63,VALID,0,VALID,92.462,VALID,0,VALID,23.4523,VALID,358,VALID,1.49063,
2008-04-01, 03:24:04,VALID,1003.65,VALID,0,VALID,92.6222,VALID,0,VALID,23.4718,VALID,1,VALID,1.13984,
2008-04-01, 03:25:04,VALID,1003.66,VALID,0,VALID,92.5688,VALID,0,VALID,23.4912,VALID,359,VALID,2.33398,
2008-04-01, 03:26:04,VALID,1003.64,VALID,0,VALID,92.2942,VALID,0,VALID,23.5302,VALID,21,VALID,2.04922,
2008-04-01, 03:27:04,VALID,1003.66,VALID,0,VALID,92.3705,VALID,0,VALID,23.5496,VALID,360,VALID,1.475,
2008-04-01, 03:28:04,VALID,1003.68,VALID,0,VALID,92.3552,VALID,0,VALID,23.5089,VALID,14,VALID,1.80391,
2008-04-01, 03:29:04,VALID,1003.71,VALID,0,VALID,92.5841,VALID,0,VALID,23.5302,VALID,353,VALID,1.14219,
2008-04-01, 03:30:04,VALID,1003.7,VALID,0,VALID,92.6375,VALID,0,VALID,23.5496,VALID,10,VALID,1.65078,
2008-04-01, 03:31:04,VALID,1003.72,VALID,0,VALID,92.462,VALID,0,VALID,23.5496,VALID,32,VALID,2.20078,
2008-04-01, 03:32:04,VALID,1003.72,VALID,0,VALID,92.3552,VALID,0,VALID,23.5691,VALID,15,VALID,2.52891,
2008-04-01, 03:33:04,VALID,1003.72,VALID,0,VALID,92.2408,VALID,0,VALID,23.5691,VALID,1,VALID,1.70586,
2008-04-01, 03:34:04,VALID,1003.74,VALID,0,VALID,92.3629,VALID,0,VALID,23.5302,VALID,10,VALID,1.74141,
2008-04-01, 03:35:04,VALID,1003.7,VALID,0,VALID,92.5154,VALID,0,VALID,23.5107,VALID,360,VALID,1.61602,
2008-04-01, 03:36:04,VALID,1003.71,VALID,0,VALID,92.4163,VALID,0,VALID,23.5302,VALID,7,VALID,2.14102,
2008-04-01, 03:37:04,VALID,1003.72,VALID,0,VALID,92.4239,VALID,0,VALID,23.5107,VALID,17,VALID,2.83555,
2008-04-01, 03:38:04,VALID,1003.72,VALID,0,VALID,92.462,VALID,0,VALID,23.4894,VALID,3,VALID,2.59648,
2008-04-01, 03:39:04,VALID,1003.65,VALID,0,VALID,92.4849,VALID,0,VALID,23.5284,VALID,14,VALID,3.08906,
2008-04-01, 03:40:04,VALID,1003.7,VALID,0,VALID,92.5154,VALID,0,VALID,23.5496,VALID,10,VALID,2.93555,
2008-04-01, 03:41:04,VALID,1003.7,VALID,0,VALID,92.2484,VALID,0.100563,VALID,23.608,VALID,6,VALID,2.20742,
2008-04-01, 03:42:04,VALID,1003.72,VALID,0,VALID,92.0424,VALID,0,VALID,23.6062,VALID,16,VALID,2.51055,
2008-04-01, 03:43:04,VALID,1003.7,VALID,0,VALID,91.928,VALID,0,VALID,23.6275,VALID,7,VALID,2.17852,
2008-04-01, 03:44:04,VALID,1003.69,VALID,0,VALID,92.134,VALID,0,VALID,23.6275,VALID,16,VALID,3.56289,
2008-04-01, 03:45:04,VALID,1003.69,VALID,0,VALID,92.1264,VALID,0,VALID,23.608,VALID,354,VALID,2.03906,
2008-04-01, 03:46:04,VALID,1003.71,VALID,0,VALID,92.3857,VALID,0,VALID,23.5885,VALID,12,VALID,1.63164,
2008-04-01, 03:47:04,VALID,1003.67,VALID,0,VALID,92.3476,VALID,0,VALID,23.6062,VALID,5,VALID,2.53086,
2008-04-01, 03:48:04,VALID,1003.66,VALID,0,VALID,92.3171,VALID,0.100563,VALID,23.608,VALID,11,VALID,2.67422,